Regional Weather Roundup
Issued by NWS

Home | Current Version | Previous Version | Text Only | Print | Product List | Glossary On
Versions: 1 2 3 4 5 6 7 8 9 10 11 12 13 14 15 16 17 18 19 20 21 22 23 24 25 26 27 28 29 30 31 32 33 34 35 36 37 38 39 40 41 42 43 44 45 46 47 48 49 50
000
ASUS44 KLIX 280810
RWRLA
LOUISIANA WEATHER ROUNDUP
NATIONAL WEATHER SERVICE NEW ORLEANS LA
200 AM CST FRI NOV 28 2014

NOTE: "FAIR" INDICATES FEW OR NO CLOUDS BELOW 12,000 FEET WITH NO
      SIGNIFICANT WEATHER AND/OR OBSTRUCTIONS TO VISIBILITY.
      SKY/WX - SKY CONDITION AND SIGNIFICANT WEATHER.
      TMP - AIR TEMPERATURE.    DP   - DEWPOINT TEMPERATURE.
      RH  - RELATIVE HUMIDITY.  PRES - PRESSURE.
      HX  - HEAT INDEX.         WCI  - WIND CHILL INDEX.

*  THESE STATIONS ARE NOT NWS OR FAA STATIONS AND ARE NOT UNDER
   NWS QUALITY CONTROL.

LAZ040-048-061>063-065-066-069-280900-
SOUTHEAST LOUISIANA

CITY           SKY/WX    TMP DP  RH WIND       PRES   REMARKS
N.O. AUDUBON     N/A     47  36  65 MISG        N/A
N.O. INTL ARPT CLEAR     47  36  65 NE9       30.42S
N.O. LAKEFRONT CLEAR     49  35  58 NE17      30.43R
N.O. DOWNTOWN* FAIR      46  32  57 N5        30.42S
SLIDELL        CLEAR     33  30  88 N6        30.42F WCI  28
BATON ROUGE    CLEAR     37  31  78 NE5       30.43S WCI  33
BOOTHVILLE     CLEAR     52  41  66 NE8       30.40F
BELLE CHASSE   CLEAR     44  34  67 N5        30.41S
BOGALUSA*        N/A     37  32  82 CALM      30.45F
NEW ROADS*     FAIR      38  32  77 NE3       30.44R
GONZALES*      FAIR      39  34  84 CALM      30.42S
HAMMOND*       CLEAR     39  32  75 NE3       30.44S
HOUMA*         CLEAR     39  35  87 NE3       30.41S
PORT FOURCHON* SUNNY     52  41  66 NE8       30.43S

$$

LAZ041-044-053-054-280900-
SOUTHWEST LOUISIANA

CITY           SKY/WX    TMP DP  RH WIND       PRES   REMARKS
LAKE CHARLES   CLEAR     41  35  79 E5        30.40F
LAFAYETTE      CLEAR     40  35  83 CALM      30.42S
PATTERSON      CLEAR     37  36  93 CALM      30.44S
SALT POINT       N/A     46  37  71 CALM      30.41R
NEW IBERIA     CLEAR     43  34  70 E7        30.42F
CHENAULT AIRPK CLEAR     40  35  82 CALM      30.41S

$$

LAZ027-028-280900-
CENTRAL LOUISIANA

CITY           SKY/WX    TMP DP  RH WIND       PRES   REMARKS
FORT POLK      CLEAR     38  34  83 CALM      30.40S
ALEXANDRIA INT CLEAR     36  32  85 CALM      30.42S
ALEXANDRIA     CLEAR     32  30  92 CALM      30.43S

$$

LAZ001-002-280900-
NORTHWEST LOUISIANA

CITY           SKY/WX    TMP DP  RH WIND       PRES   REMARKS
SHREVEPORT     CLEAR     39  33  79 SE3       30.40S
BARKSDALE AFB  CLEAR     35  31  85 SE2       30.41F
DTN SHREVEPORT CLEAR     39  31  72 SE8       30.41F WCI  33

$$

LAZ014-016-280900-
NORTHEAST LOUISIANA

CITY           SKY/WX    TMP DP  RH WIND       PRES   REMARKS
MONROE         CLEAR     33  32  96 CALM      30.45S
TALLULAH       CLEAR     29  27  92 CALM      30.44F

$$



USA.gov is the U.S. government's official web portal to all federal, state and local government web resources and services.